Montague, CA

3:08 AM PST on November 21, 2019 (GMT -0800)
Siskiyou County

Weather History for KSIY - October, 2019

Change the Weather History Date:

Monday, October 21, 2019

  Actual Average Record
Temperature  
Mean Temperature 54 °F 50 °F  
Max Temperature 71 °F 65 °F 86 °F (2003)
Min Temperature 37 °F 35 °F 25 °F (1996)
Degree Days  
Heating Degree Days 11 15  
Month to date heating degree days 315 238  
Since 1 July heating degree days 454 380  
Cooling Degree Days 0 0  
Month to date cooling degree days 0 0  
Year to date cooling degree days 745 542  
Growing Degree Days 4 (Base 50)    
Moisture  
Dew Point 40 °F    
Average Humidity 68    
Maximum Humidity 100    
Minimum Humidity 31    
Precipitation  
Precipitation 0.00 in 0.04 in 1.12 in (1985)
Month to date precipitation 0.36 0.58  
Year to date precipitation 9.71 12.22  
Sea Level Pressure  
Sea Level Pressure 30.37 in    
Wind  
Wind Speed 2 mph (NE)    
Max Wind Speed 10 mph    
Max Gust Speed 11 mph    
Visibility 10 miles    
Events      
T = Trace of Precipitation, MM = Missing Value Source: NWS Daily Summary

Daily Weather History Graph

Daily Weather History Graph

Search for Another Location

Airport or City:

Astronomy

Oct. 21, 2019 Rise Set
Actual Time 7:28 AM PDT 6:19 PM PDT
Civil Twilight 7:00 AM PDT 6:47 PM PDT
Nautical Twilight 6:28 AM PDT 7:20 PM PDT
Astronomical Twilight 5:55 AM PDT 7:52 PM PDT
Moon No Moon Rise 2:54 PM PDT
Length of Visible Light 11h 47m
Length of Day
10h 50m
Waning Gibbous, 47% of the Moon is Illuminated
Oct 21
Waning Gibbous
Oct 27
New
Nov 4
First Quarter
Nov 12
Full
Nov 19
Last Quarter

Hourly Weather History & Observations

Time (PDT) Temp. Windchill Dew Point Humidity Pressure Visibility Wind Dir Wind Speed Gust Speed Precip Events Conditions
12:53 AM 46.0 °F - 42.1 °F 86% 30.29 in 10.0 mi Calm Calm - N/A   Partly Cloudy
1:53 AM 39.9 °F - 37.0 °F 89% 30.30 in 10.0 mi Calm Calm - N/A   Clear
2:53 AM 37.9 °F 33.5 °F 36.0 °F 93% 30.33 in 10.0 mi NNE 5.8 mph - N/A   Clear
3:53 AM 37.9 °F 35.5 °F 37.0 °F 97% 30.33 in 10.0 mi NNE 3.5 mph - N/A   Mostly Cloudy
4:53 AM 41.0 °F - 39.0 °F 93% 30.33 in 10.0 mi Calm Calm - N/A   Overcast
5:53 AM 43.0 °F - 41.0 °F 93% 30.35 in 10.0 mi Calm Calm - N/A   Overcast
6:53 AM 44.1 °F - 41.0 °F 89% 30.38 in 10.0 mi Calm Calm - N/A   Overcast
7:53 AM 45.0 °F - 42.1 °F 90% 30.40 in 10.0 mi Calm Calm - N/A   Overcast
8:53 AM 46.9 °F - 43.0 °F 86% 30.42 in 10.0 mi SSW 3.5 mph - N/A   Scattered Clouds
9:53 AM 51.1 °F - 43.0 °F 74% 30.43 in 10.0 mi Calm Calm - N/A   Clear
10:53 AM 55.9 °F - 44.1 °F 64% 30.41 in 10.0 mi Variable 3.5 mph - N/A   Clear
11:53 AM 57.9 °F - 45.0 °F 62% 30.40 in 10.0 mi Calm Calm - N/A   Clear
12:53 PM 62.1 °F - 39.9 °F 44% 30.38 in 10.0 mi Calm Calm - N/A   Clear
1:53 PM 66.0 °F - 36.0 °F 33% 30.36 in 10.0 mi SSE 4.6 mph - N/A   Clear
2:53 PM 69.1 °F - 37.9 °F 32% 30.35 in 10.0 mi Variable 3.5 mph - N/A   Clear
3:53 PM 71.1 °F - 39.9 °F 32% 30.35 in 10.0 mi Calm Calm - N/A   Clear
4:53 PM 70.0 °F - 39.0 °F 32% 30.35 in 10.0 mi Calm Calm - N/A   Clear
5:53 PM 69.1 °F - 41.0 °F 36% 30.34 in 10.0 mi North 3.5 mph - N/A   Clear
6:53 PM 55.0 °F - 43.0 °F 64% 30.37 in 10.0 mi NNE 8.1 mph - N/A   Clear
7:53 PM 55.0 °F - 42.1 °F 62% 30.38 in 10.0 mi North 8.1 mph - N/A   Clear
8:53 PM 53.1 °F - 41.0 °F 64% 30.39 in 10.0 mi NE 6.9 mph - N/A   Clear
9:53 PM 51.1 °F - 41.0 °F 68% 30.40 in 10.0 mi ENE 6.9 mph - N/A   Clear
10:53 PM 50.0 °F - 39.0 °F 66% 30.41 in 10.0 mi Calm Calm - N/A   Clear
11:53 PM 46.0 °F - 37.9 °F 73% 30.42 in 10.0 mi Calm Calm - N/A   Clear